owner,sensor,date,latitude,longitude,vertical_datum,wind_speed,wind_to_direction,wind_speed_of_gust,qcFlag 
NDBC,ioos:station:wmo:42035:1,2015-12-01T00:50:00Z,29.2320,-94.4130,5.0,6.0,320.0,6.0,'1111122,1111122,1111122' 
NDBC,ioos:station:wmo:42035:1,2015-12-01T01:50:00Z,29.2320,-94.4130,5.0,4.0,330.0,6.0,'1111122,1111122,1111122' 
NDBC,ioos:station:wmo:42035:1,2015-12-01T02:50:00Z,29.2320,-94.4130,5.0,4.0,340.0,5.0,'1111122,1111122,1111122' 
NDBC,ioos:station:wmo:42035:1,2015-12-01T03:50:00Z,29.2320,-94.4130,5.0,6.0,330.0,7.0,'1111122,1111122,1111122' 
NDBC,ioos:station:wmo:42035:1,2015-12-01T04:50:00Z,29.2320,-94.4130,5.0,5.0,340.0,6.0,'1111122,1111122,1111122' 
NDBC,ioos:station:wmo:42035:1,2015-12-01T05:50:00Z,29.2320,-94.4130,5.0,7.0,330.0,9.0,'1111122,1111122,1111122' 
NDBC,ioos:station:wmo:42035:1,2015-12-01T06:50:00Z,29.2320,-94.4130,5.0,7.0,330.0,8.0,'1111122,1111122,1111122' 
NDBC,ioos:station:wmo:42035:1,2015-12-01T07:50:00Z,29.2320,-94.4130,5.0,7.0,340.0,8.0,'1111122,1111122,1111122' 
NDBC,ioos:station:wmo:42035:1,2015-12-01T08:50:00Z,29.2320,-94.4130,5.0,8.0,340.0,9.0,'1111122,1111122,1111122' 
NDBC,ioos:station:wmo:42035:1,2015-12-01T09:50:00Z,29.2320,-94.4130,5.0,7.0,340.0,8.0,'1111122,1111122,1111122' 
NDBC,ioos:station:wmo:42035:1,2015-12-01T10:50:00Z,29.2320,-94.4130,5.0,9.0,340.0,10.0,'1111122,1111122,1111122' 
NDBC,ioos:station:wmo:42035:1,2015-12-01T11:50:00Z,29.2320,-94.4130,5.0,7.0,360.0,8.0,'1111122,1111122,1111122' 
NDBC,ioos:station:wmo:42035:1,2015-12-01T12:50:00Z,29.2320,-94.4130,5.0,8.0,350.0,10.0,'1111122,1111122,1111122' 
NDBC,ioos:station:wmo:42035:1,2015-12-01T13:50:00Z,29.2320,-94.4130,5.0,8.0,350.0,10.0,'1111122,1111122,1111122' 
NDBC,ioos:station:wmo:42035:1,2015-12-01T14:50:00Z,29.2320,-94.4130,5.0,8.0,350.0,9.0,'1111122,1111122,1111122' 
NDBC,ioos:station:wmo:42035:1,2015-12-01T15:50:00Z,29.2320,-94.4130,5.0,7.0,360.0,9.0,'1111122,1111122,1111122' 
NDBC,ioos:station:wmo:42035:1,2015-12-01T16:50:00Z,29.2320,-94.4130,5.0,7.0,10.0,8.0,'1111122,1111122,1111122' 
NDBC,ioos:station:wmo:42035:1,2015-12-01T17:50:00Z,29.2320,-94.4130,5.0,5.0,360.0,6.0,'1111122,1111122,1111122' 
NDBC,ioos:station:wmo:42035:1,2015-12-01T18:50:00Z,29.2320,-94.4130,5.0,6.0,350.0,7.0,'1111122,1111122,1111122' 
NDBC,ioos:station:wmo:42035:1,2015-12-01T19:50:00Z,29.2320,-94.4130,5.0,4.0,350.0,6.0,'1111122,1111122,1111122' 
NDBC,ioos:station:wmo:42035:1,2015-12-01T20:50:00Z,29.2320,-94.4130,5.0,4.0,10.0,5.0,'1111122,1111122,1111122' 
NDBC,ioos:station:wmo:42035:1,2015-12-01T21:50:00Z,29.2320,-94.4130,5.0,4.0,10.0,4.0,'1111122,1111122,1111122' 
NDBC,ioos:station:wmo:42035:1,2015-12-01T22:50:00Z,29.2320,-94.4130,5.0,4.0,20.0,6.0,'1111122,1111122,1111122' 
NDBC,ioos:station:wmo:42035:1,2015-12-01T23:50:00Z,29.2320,-94.4130,5.0,4.0,20.0,6.0,'1111122,1111122,1111122' 
NDBC,ioos:station:wmo:42035:1,2015-12-02T00:50:00Z,29.2320,-94.4130,5.0,4.0,20.0,5.0,'1111122,1111122,1111122' 
NDBC,ioos:station:wmo:42035:1,2015-12-02T01:50:00Z,29.2320,-94.4130,5.0,6.0,350.0,7.0,'1111122,1111122,1111122' 
NDBC,ioos:station:wmo:42035:1,2015-12-02T02:50:00Z,29.2320,-94.4130,5.0,7.0,340.0,8.0,'1111122,1111122,1111122' 
NDBC,ioos:station:wmo:42035:1,2015-12-02T03:50:00Z,29.2320,-94.4130,5.0,5.0,360.0,6.0,'1111122,1111122,1111122' 
NDBC,ioos:station:wmo:42035:1,2015-12-02T04:50:00Z,29.2320,-94.4130,5.0,7.0,340.0,9.0,'1111122,1111122,1111122' 
NDBC,ioos:station:wmo:42035:1,2015-12-02T05:50:00Z,29.2320,-94.4130,5.0,6.0,350.0,8.0,'1111122,1111122,1111122' 
NDBC,ioos:station:wmo:42035:1,2015-12-02T06:50:00Z,29.2320,-94.4130,5.0,6.0,360.0,7.0,'1111122,1111122,1111122' 
NDBC,ioos:station:wmo:42035:1,2015-12-02T07:50:00Z,29.2320,-94.4130,5.0,6.0,360.0,7.0,'1111122,1111122,1111122' 
NDBC,ioos:station:wmo:42035:1,2015-12-02T08:50:00Z,29.2320,-94.4130,5.0,9.0,350.0,11.0,'1111122,1111122,1111122' 
NDBC,ioos:station:wmo:42035:1,2015-12-02T09:50:00Z,29.2320,-94.4130,5.0,9.0,360.0,11.0,'1111122,1111122,1111122' 
NDBC,ioos:station:wmo:42035:1,2015-12-02T10:50:00Z,29.2320,-94.4130,5.0,8.0,10.0,10.0,'1111122,1111122,1111122' 
NDBC,ioos:station:wmo:42035:1,2015-12-02T11:50:00Z,29.2320,-94.4130,5.0,8.0,10.0,10.0,'1111122,1111122,1111122' 
NDBC,ioos:station:wmo:42035:1,2015-12-02T12:50:00Z,29.2320,-94.4130,5.0,8.0,10.0,11.0,'1111122,1111122,1111122' 
NDBC,ioos:station:wmo:42035:1,2015-12-02T13:50:00Z,29.2320,-94.4130,5.0,8.0,360.0,11.0,'1111122,1111122,1111122' 
NDBC,ioos:station:wmo:42035:1,2015-12-02T14:50:00Z,29.2320,-94.4130,5.0,8.0,10.0,10.0,'1111122,1111122,1111122' 
NDBC,ioos:station:wmo:42035:1,2015-12-02T15:50:00Z,29.2320,-94.4130,5.0,9.0,10.0,11.0,'1111122,1111122,1111122' 
NDBC,ioos:station:wmo:42035:1,2015-12-02T16:50:00Z,29.2320,-94.4130,5.0,8.0,10.0,10.0,'1111122,1111122,1111122' 
NDBC,ioos:station:wmo:42035:1,2015-12-02T17:50:00Z,29.2320,-94.4130,5.0,8.0,360.0,11.0,'1111122,1111122,1111122' 
NDBC,ioos:station:wmo:42035:1,2015-12-02T18:50:00Z,29.2320,-94.4130,5.0,8.0,350.0,10.0,'1111122,1111122,1111122' 
NDBC,ioos:station:wmo:42035:1,2015-12-02T19:50:00Z,29.2320,-94.4130,5.0,7.0,340.0,8.0,'1111122,1111122,1111122' 
NDBC,ioos:station:wmo:42035:1,2015-12-02T20:50:00Z,29.2320,-94.4130,5.0,6.0,340.0,8.0,'1111122,1111122,1111122' 
NDBC,ioos:station:wmo:42035:1,2015-12-02T21:50:00Z,29.2320,-94.4130,5.0,7.0,340.0,9.0,'1111122,1111122,1111122' 
NDBC,ioos:station:wmo:42035:1,2015-12-02T22:50:00Z,29.2320,-94.4130,5.0,7.0,340.0,8.0,'1111122,1111122,1111122' 
NDBC,ioos:station:wmo:42035:1,2015-12-02T23:50:00Z,29.2320,-94.4130,5.0,6.0,340.0,8.0,'1111122,1111122,1111122' 
NDBC,ioos:station:wmo:42035:1,2015-12-03T00:50:00Z,29.2320,-94.4130,5.0,5.0,340.0,6.0,'1111122,1111122,1111122' 
NDBC,ioos:station:wmo:42035:1,2015-12-03T01:50:00Z,29.2320,-94.4130,5.0,5.0,330.0,6.0,'1111122,1111122,1111122' 
NDBC,ioos:station:wmo:42035:1,2015-12-03T02:50:00Z,29.2320,-94.4130,5.0,7.0,330.0,9.0,'1111122,1111122,1111122' 
NDBC,ioos:station:wmo:42035:1,2015-12-03T03:50:00Z,29.2320,-94.4130,5.0,7.0,330.0,9.0,'1111122,1111122,1111122' 
NDBC,ioos:station:wmo:42035:1,2015-12-03T04:50:00Z,29.2320,-94.4130,5.0,9.0,330.0,11.0,'1111122,1111122,1111122' 
NDBC,ioos:station:wmo:42035:1,2015-12-03T05:50:00Z,29.2320,-94.4130,5.0,11.0,340.0,12.0,'1111122,1111122,1111122' 
NDBC,ioos:station:wmo:42035:1,2015-12-03T06:50:00Z,29.2320,-94.4130,5.0,11.0,350.0,13.0,'1111122,1111122,1111122' 
NDBC,ioos:station:wmo:42035:1,2015-12-03T07:50:00Z,29.2320,-94.4130,5.0,9.0,360.0,11.0,'1111122,1111122,1111122' 
NDBC,ioos:station:wmo:42035:1,2015-12-03T08:50:00Z,29.2320,-94.4130,5.0,9.0,360.0,11.0,'1111122,1111122,1111122' 
NDBC,ioos:station:wmo:42035:1,2015-12-03T09:50:00Z,29.2320,-94.4130,5.0,9.0,360.0,10.0,'1111122,1111122,1111122' 
NDBC,ioos:station:wmo:42035:1,2015-12-03T10:50:00Z,29.2320,-94.4130,5.0,7.0,10.0,10.0,'1111122,1111122,1111122' 
NDBC,ioos:station:wmo:42035:1,2015-12-03T11:50:00Z,29.2320,-94.4130,5.0,9.0,360.0,10.0,'1111122,1111122,1111122' 
NDBC,ioos:station:wmo:42035:1,2015-12-03T12:50:00Z,29.2320,-94.4130,5.0,9.0,10.0,11.0,'1111122,1111122,1111122' 
NDBC,ioos:station:wmo:42035:1,2015-12-03T13:50:00Z,29.2320,-94.4130,5.0,9.0,10.0,11.0,'1111122,1111122,1111122' 
NDBC,ioos:station:wmo:42035:1,2015-12-03T14:50:00Z,29.2320,-94.4130,5.0,9.0,20.0,11.0,'1111122,1111122,1111122' 
NDBC,ioos:station:wmo:42035:1,2015-12-03T15:50:00Z,29.2320,-94.4130,5.0,9.0,20.0,11.0,'1111122,1111122,1111122' 
NDBC,ioos:station:wmo:42035:1,2015-12-03T16:50:00Z,29.2320,-94.4130,5.0,8.0,20.0,10.0,'1111122,1111122,1111122' 
NDBC,ioos:station:wmo:42035:1,2015-12-03T17:50:00Z,29.2320,-94.4130,5.0,7.0,20.0,9.0,'1111122,1111122,1111122' 
NDBC,ioos:station:wmo:42035:1,2015-12-03T18:50:00Z,29.2320,-94.4130,5.0,6.0,20.0,8.0,'1111122,1111122,1111122' 
NDBC,ioos:station:wmo:42035:1,2015-12-03T19:50:00Z,29.2320,-94.4130,5.0,5.0,10.0,7.0,'1111122,1111122,1111122' 
NDBC,ioos:station:wmo:42035:1,2015-12-03T20:50:00Z,29.2320,-94.4130,5.0,4.0,10.0,5.0,'1111122,1111122,1111122' 
NDBC,ioos:station:wmo:42035:1,2015-12-03T21:50:00Z,29.2320,-94.4130,5.0,3.0,10.0,4.0,'1111122,1111122,1111122' 
NDBC,ioos:station:wmo:42035:1,2015-12-03T22:50:00Z,29.2320,-94.4130,5.0,3.0,360.0,4.0,'1111122,1111122,1111122' 
NDBC,ioos:station:wmo:42035:1,2015-12-03T23:50:00Z,29.2320,-94.4130,5.0,4.0,350.0,5.0,'1111122,1111122,1111122' 
NDBC,ioos:station:wmo:42035:1,2015-12-04T00:50:00Z,29.2320,-94.4130,5.0,7.0,350.0,9.0,'1111122,1111122,1111122' 
NDBC,ioos:station:wmo:42035:1,2015-12-04T01:50:00Z,29.2320,-94.4130,5.0,7.0,360.0,9.0,'1111122,1111122,1111122' 
NDBC,ioos:station:wmo:42035:1,2015-12-04T02:50:00Z,29.2320,-94.4130,5.0,7.0,360.0,9.0,'1111122,1111122,1111122' 
NDBC,ioos:station:wmo:42035:1,2015-12-04T03:50:00Z,29.2320,-94.4130,5.0,8.0,10.0,9.0,'1111122,1111122,1111122' 
NDBC,ioos:station:wmo:42035:1,2015-12-04T04:50:00Z,29.2320,-94.4130,5.0,9.0,20.0,11.0,'1111122,1111122,1111122' 
NDBC,ioos:station:wmo:42035:1,2015-12-04T05:50:00Z,29.2320,-94.4130,5.0,8.0,20.0,10.0,'1111122,1111122,1111122' 
NDBC,ioos:station:wmo:42035:1,2015-12-04T06:50:00Z,29.2320,-94.4130,5.0,8.0,20.0,10.0,'1111122,1111122,1111122' 
NDBC,ioos:station:wmo:42035:1,2015-12-04T07:50:00Z,29.2320,-94.4130,5.0,8.0,30.0,10.0,'1111122,1111122,1111122' 
NDBC,ioos:station:wmo:42035:1,2015-12-04T08:50:00Z,29.2320,-94.4130,5.0,8.0,30.0,10.0,'1111122,1111122,1111122' 
NDBC,ioos:station:wmo:42035:1,2015-12-04T09:50:00Z,29.2320,-94.4130,5.0,9.0,30.0,11.0,'1111122,1111122,1111122' 
NDBC,ioos:station:wmo:42035:1,2015-12-04T10:50:00Z,29.2320,-94.4130,5.0,9.0,30.0,11.0,'1111122,1111122,1111122' 
NDBC,ioos:station:wmo:42035:1,2015-12-04T11:50:00Z,29.2320,-94.4130,5.0,9.0,40.0,12.0,'1111122,1111122,1111122' 
NDBC,ioos:station:wmo:42035:1,2015-12-04T12:50:00Z,29.2320,-94.4130,5.0,9.0,40.0,11.0,'1111122,1111122,1111122' 
NDBC,ioos:station:wmo:42035:1,2015-12-04T13:50:00Z,29.2320,-94.4130,5.0,8.0,40.0,9.0,'1111122,1111122,1111122' 
NDBC,ioos:station:wmo:42035:1,2015-12-04T14:50:00Z,29.2320,-94.4130,5.0,8.0,40.0,10.0,'1111122,1111122,1111122' 
NDBC,ioos:station:wmo:42035:1,2015-12-04T15:50:00Z,29.2320,-94.4130,5.0,6.0,40.0,8.0,'1111122,1111122,1111122' 
NDBC,ioos:station:wmo:42035:1,2015-12-04T16:50:00Z,29.2320,-94.4130,5.0,6.0,40.0,8.0,'1111122,1111122,1111122' 
NDBC,ioos:station:wmo:42035:1,2015-12-04T17:50:00Z,29.2320,-94.4130,5.0,5.0,40.0,7.0,'1111122,1111122,1111122' 
NDBC,ioos:station:wmo:42035:1,2015-12-04T18:50:00Z,29.2320,-94.4130,5.0,6.0,30.0,8.0,'1111122,1111122,1111122' 
NDBC,ioos:station:wmo:42035:1,2015-12-05T00:50:00Z,29.2320,-94.4130,5.0,5.0,10.0,7.0,'1111122,1111122,1111122' 
NDBC,ioos:station:wmo:42035:1,2015-12-05T06:50:00Z,29.2320,-94.4130,5.0,6.0,50.0,8.0,'1111122,1111122,1111122' 
NDBC,ioos:station:wmo:42035:1,2015-12-05T12:50:00Z,29.2320,-94.4130,5.0,5.0,70.0,6.0,'1111122,1111122,1111122' 
NDBC,ioos:station:wmo:42035:1,2015-12-05T18:50:00Z,29.2320,-94.4130,5.0,5.0,10.0,8.0,'1111122,1111122,1111122' 
NDBC,ioos:station:wmo:42035:1,2015-12-06T00:50:00Z,29.2320,-94.4130,5.0,4.0,30.0,5.0,'1111122,1111122,1111122' 
NDBC,ioos:station:wmo:42035:1,2015-12-06T06:50:00Z,29.2320,-94.4130,5.0,4.0,120.0,5.0,'1111122,1111122,1111122' 
NDBC,ioos:station:wmo:42035:1,2015-12-06T11:50:00Z,29.2320,-94.4130,5.0,6.0,350.0,7.0,'1111122,1111122,1111122' 
NDBC,ioos:station:wmo:42035:1,2015-12-06T16:50:00Z,29.2320,-94.4130,5.0,2.0,20.0,3.0,'1111122,1111122,1111122' 
NDBC,ioos:station:wmo:42035:1,2015-12-06T17:50:00Z,29.2320,-94.4130,5.0,2.0,360.0,3.0,'1111122,1111122,1111122' 
NDBC,ioos:station:wmo:42035:1,2015-12-06T18:50:00Z,29.2320,-94.4130,5.0,2.0,350.0,3.0,'1111122,1111122,1111122' 
NDBC,ioos:station:wmo:42035:1,2015-12-06T19:50:00Z,29.2320,-94.4130,5.0,2.0,350.0,3.0,'1111122,1111122,1111122' 
NDBC,ioos:station:wmo:42035:1,2015-12-06T20:50:00Z,29.2320,-94.4130,5.0,1.0,340.0,2.0,'1111122,1111122,1111122' 
NDBC,ioos:station:wmo:42035:1,2015-12-06T21:50:00Z,29.2320,-94.4130,5.0,1.0,330.0,2.0,'1111122,1111122,1111122' 
NDBC,ioos:station:wmo:42035:1,2015-12-06T22:50:00Z,29.2320,-94.4130,5.0,2.0,300.0,2.0,'1111122,1111122,1111122' 
NDBC,ioos:station:wmo:42035:1,2015-12-06T23:50:00Z,29.2320,-94.4130,5.0,3.0,290.0,4.0,'1111122,1111122,1111122' 
NDBC,ioos:station:wmo:42035:1,2015-12-07T00:50:00Z,29.2320,-94.4130,5.0,4.0,310.0,4.0,'1111122,1111122,1111122' 
NDBC,ioos:station:wmo:42035:1,2015-12-07T01:50:00Z,29.2320,-94.4130,5.0,4.0,320.0,5.0,'1111122,1111122,1111122' 
NDBC,ioos:station:wmo:42035:1,2015-12-07T02:50:00Z,29.2320,-94.4130,5.0,4.0,340.0,5.0,'1111122,1111122,1111122' 
NDBC,ioos:station:wmo:42035:1,2015-12-07T04:50:00Z,29.2320,-94.4130,5.0,6.0,350.0,6.0,'1111122,1111122,1111122' 
NDBC,ioos:station:wmo:42035:1,2015-12-07T05:50:00Z,29.2320,-94.4130,5.0,5.0,360.0,6.0,'1111122,1111122,1111122' 
NDBC,ioos:station:wmo:42035:1,2015-12-07T06:50:00Z,29.2320,-94.4130,5.0,6.0,10.0,7.0,'1111122,1111122,1111122' 
NDBC,ioos:station:wmo:42035:1,2015-12-07T07:50:00Z,29.2320,-94.4130,5.0,5.0,20.0,6.0,'1111122,1111122,1111122' 
NDBC,ioos:station:wmo:42035:1,2015-12-07T08:50:00Z,29.2320,-94.4130,5.0,6.0,10.0,6.0,'1111122,1111122,1111122' 
NDBC,ioos:station:wmo:42035:1,2015-12-07T09:50:00Z,29.2320,-94.4130,5.0,5.0,20.0,6.0,'1111122,1111122,1111122' 
NDBC,ioos:station:wmo:42035:1,2015-12-07T10:50:00Z,29.2320,-94.4130,5.0,5.0,10.0,7.0,'1111122,1111122,1111122' 
NDBC,ioos:station:wmo:42035:1,2015-12-07T11:50:00Z,29.2320,-94.4130,5.0,5.0,10.0,6.0,'1111122,1111122,1111122' 
NDBC,ioos:station:wmo:42035:1,2015-12-07T12:50:00Z,29.2320,-94.4130,5.0,4.0,360.0,4.0,'1111122,1111122,1111122' 
NDBC,ioos:station:wmo:42035:1,2015-12-07T13:50:00Z,29.2320,-94.4130,5.0,4.0,20.0,5.0,'1111122,1111122,1111122' 
NDBC,ioos:station:wmo:42035:1,2015-12-07T14:50:00Z,29.2320,-94.4130,5.0,5.0,20.0,6.0,'1111122,1111122,1111122' 
NDBC,ioos:station:wmo:42035:1,2015-12-07T15:50:00Z,29.2320,-94.4130,5.0,4.0,20.0,5.0,'1111122,1111122,1111122' 
NDBC,ioos:station:wmo:42035:1,2015-12-07T20:50:00Z,29.2320,-94.4130,5.0,3.0,60.0,4.0,'1111122,1111122,1111122' 
NDBC,ioos:station:wmo:42035:1,2015-12-07T21:50:00Z,29.2320,-94.4130,5.0,2.0,100.0,4.0,'1111122,1111122,1111122' 
NDBC,ioos:station:wmo:42035:1,2015-12-07T22:50:00Z,29.2320,-94.4130,5.0,2.0,120.0,3.0,'1111122,1111122,1111122' 
NDBC,ioos:station:wmo:42035:1,2015-12-07T23:50:00Z,29.2320,-94.4130,5.0,1.0,140.0,2.0,'1111122,1111122,1111122' 
NDBC,ioos:station:wmo:42035:1,2015-12-08T01:50:00Z,29.2320,-94.4130,5.0,1.0,160.0,1.0,'1111122,1111122,1111122' 
NDBC,ioos:station:wmo:42035:1,2015-12-08T02:50:00Z,29.2320,-94.4130,5.0,2.0,160.0,3.0,'1111122,1111122,1111122' 
NDBC,ioos:station:wmo:42035:1,2015-12-08T03:50:00Z,29.2320,-94.4130,5.0,2.0,160.0,3.0,'1111122,1111122,1111122' 
NDBC,ioos:station:wmo:42035:1,2015-12-08T04:50:00Z,29.2320,-94.4130,5.0,2.0,150.0,3.0,'1111122,1111122,1111122' 
NDBC,ioos:station:wmo:42035:1,2015-12-08T05:50:00Z,29.2320,-94.4130,5.0,3.0,160.0,3.0,'1111122,1111122,1111122' 
NDBC,ioos:station:wmo:42035:1,2015-12-08T06:50:00Z,29.2320,-94.4130,5.0,3.0,160.0,4.0,'1111122,1111122,1111122' 
NDBC,ioos:station:wmo:42035:1,2015-12-08T07:50:00Z,29.2320,-94.4130,5.0,2.0,200.0,3.0,'1111122,1111122,1111122' 
NDBC,ioos:station:wmo:42035:1,2015-12-08T08:50:00Z,29.2320,-94.4130,5.0,2.0,210.0,2.0,'1111122,1111122,1111122' 
NDBC,ioos:station:wmo:42035:1,2015-12-08T09:50:00Z,29.2320,-94.4130,5.0,2.0,260.0,2.0,'1111122,1111122,1111122' 
NDBC,ioos:station:wmo:42035:1,2015-12-08T10:50:00Z,29.2320,-94.4130,5.0,1.0,300.0,2.0,'1111122,1111122,1111122' 
NDBC,ioos:station:wmo:42035:1,2015-12-08T11:50:00Z,29.2320,-94.4130,5.0,2.0,360.0,3.0,'1111122,1111122,1111122' 
NDBC,ioos:station:wmo:42035:1,2015-12-08T12:50:00Z,29.2320,-94.4130,5.0,3.0,20.0,3.0,'1111122,1111122,1111122' 
NDBC,ioos:station:wmo:42035:1,2015-12-08T13:50:00Z,29.2320,-94.4130,5.0,4.0,30.0,4.0,'1111122,1111122,1111122' 
NDBC,ioos:station:wmo:42035:1,2015-12-08T14:50:00Z,29.2320,-94.4130,5.0,4.0,30.0,5.0,'1111122,1111122,1111122' 
NDBC,ioos:station:wmo:42035:1,2015-12-08T15:50:00Z,29.2320,-94.4130,5.0,4.0,30.0,5.0,'1111122,1111122,1111122' 
NDBC,ioos:station:wmo:42035:1,2015-12-08T16:50:00Z,29.2320,-94.4130,5.0,3.0,40.0,4.0,'1111122,1111122,1111122' 
NDBC,ioos:station:wmo:42035:1,2015-12-08T17:50:00Z,29.2320,-94.4130,5.0,2.0,60.0,3.0,'1111122,1111122,1111122' 
NDBC,ioos:station:wmo:42035:1,2015-12-08T18:50:00Z,29.2320,-94.4130,5.0,2.0,80.0,2.0,'1111122,1111122,1111122' 
NDBC,ioos:station:wmo:42035:1,2015-12-08T19:50:00Z,29.2320,-94.4130,5.0,2.0,120.0,3.0,'1111122,1111122,1111122' 
NDBC,ioos:station:wmo:42035:1,2015-12-08T20:50:00Z,29.2320,-94.4130,5.0,4.0,130.0,4.0,'1111122,1111122,1111122' 
NDBC,ioos:station:wmo:42035:1,2015-12-08T21:50:00Z,29.2320,-94.4130,5.0,3.0,130.0,4.0,'1111122,1111122,1111122' 
NDBC,ioos:station:wmo:42035:1,2015-12-08T22:50:00Z,29.2320,-94.4130,5.0,4.0,130.0,5.0,'1111122,1111122,1111122' 
NDBC,ioos:station:wmo:42035:1,2015-12-08T23:50:00Z,29.2320,-94.4130,5.0,5.0,130.0,5.0,'1111122,1111122,1111122' 
NDBC,ioos:station:wmo:42035:1,2015-12-09T00:50:00Z,29.2320,-94.4130,5.0,2.0,150.0,2.0,'1111122,1111122,1111122' 
NDBC,ioos:station:wmo:42035:1,2015-12-09T01:50:00Z,29.2320,-94.4130,5.0,2.0,170.0,3.0,'1111122,1111122,1111122' 
NDBC,ioos:station:wmo:42035:1,2015-12-09T02:50:00Z,29.2320,-94.4130,5.0,4.0,210.0,5.0,'1111122,1111122,1111122' 
NDBC,ioos:station:wmo:42035:1,2015-12-09T03:50:00Z,29.2320,-94.4130,5.0,4.0,220.0,4.0,'1111122,1111122,1111122' 
NDBC,ioos:station:wmo:42035:1,2015-12-09T04:50:00Z,29.2320,-94.4130,5.0,4.0,210.0,5.0,'1111122,1111122,1111122' 
NDBC,ioos:station:wmo:42035:1,2015-12-09T05:50:00Z,29.2320,-94.4130,5.0,3.0,220.0,4.0,'1111122,1111122,1111122' 
NDBC,ioos:station:wmo:42035:1,2015-12-09T06:50:00Z,29.2320,-94.4130,5.0,3.0,220.0,4.0,'1111122,1111122,1111122' 
NDBC,ioos:station:wmo:42035:1,2015-12-09T07:50:00Z,29.2320,-94.4130,5.0,3.0,260.0,4.0,'1111122,1111122,1111122' 
NDBC,ioos:station:wmo:42035:1,2015-12-09T08:50:00Z,29.2320,-94.4130,5.0,1.0,260.0,1.0,'1111122,1111122,1111122' 
NDBC,ioos:station:wmo:42035:1,2015-12-09T09:50:00Z,29.2320,-94.4130,5.0,1.0,210.0,1.0,'1111122,1111122,1111122' 
NDBC,ioos:station:wmo:42035:1,2015-12-09T10:50:00Z,29.2320,-94.4130,5.0,1.0,250.0,2.0,'1111122,1111122,1111122' 
NDBC,ioos:station:wmo:42035:1,2015-12-09T11:50:00Z,29.2320,-94.4130,5.0,1.0,230.0,1.0,'1111122,1111122,1111122' 
NDBC,ioos:station:wmo:42035:1,2015-12-09T12:50:00Z,29.2320,-94.4130,5.0,1.0,280.0,2.0,'1111122,1111122,1111122' 
NDBC,ioos:station:wmo:42035:1,2015-12-09T13:50:00Z,29.2320,-94.4130,5.0,3.0,280.0,3.0,'1111122,1111122,1111122' 
NDBC,ioos:station:wmo:42035:1,2015-12-09T14:50:00Z,29.2320,-94.4130,5.0,3.0,280.0,4.0,'1111122,1111122,1111122' 
NDBC,ioos:station:wmo:42035:1,2015-12-09T15:50:00Z,29.2320,-94.4130,5.0,3.0,280.0,4.0,'1111122,1111122,1111122' 
NDBC,ioos:station:wmo:42035:1,2015-12-09T16:50:00Z,29.2320,-94.4130,5.0,3.0,280.0,4.0,'1111122,1111122,1111122' 
NDBC,ioos:station:wmo:42035:1,2015-12-09T17:50:00Z,29.2320,-94.4130,5.0,4.0,280.0,5.0,'1111122,1111122,1111122' 
NDBC,ioos:station:wmo:42035:1,2015-12-09T18:50:00Z,29.2320,-94.4130,5.0,2.0,260.0,3.0,'1111122,1111122,1111122' 
NDBC,ioos:station:wmo:42035:1,2015-12-09T19:50:00Z,29.2320,-94.4130,5.0,3.0,230.0,3.0,'1111122,1111122,1111122' 
NDBC,ioos:station:wmo:42035:1,2015-12-09T20:50:00Z,29.2320,-94.4130,5.0,2.0,230.0,2.0,'1111122,1111122,1111122' 
NDBC,ioos:station:wmo:42035:1,2015-12-09T21:50:00Z,29.2320,-94.4130,5.0,3.0,200.0,4.0,'1111122,1111122,1111122' 
NDBC,ioos:station:wmo:42035:1,2015-12-09T22:50:00Z,29.2320,-94.4130,5.0,3.0,190.0,4.0,'1111122,1111122,1111122' 
NDBC,ioos:station:wmo:42035:1,2015-12-09T23:50:00Z,29.2320,-94.4130,5.0,3.0,190.0,3.0,'1111122,1111122,1111122' 
NDBC,ioos:station:wmo:42035:1,2015-12-10T00:50:00Z,29.2320,-94.4130,5.0,3.0,180.0,4.0,'1111122,1111122,1111122' 
NDBC,ioos:station:wmo:42035:1,2015-12-10T01:50:00Z,29.2320,-94.4130,5.0,4.0,180.0,4.0,'1111122,1111122,1111122' 
NDBC,ioos:station:wmo:42035:1,2015-12-10T02:50:00Z,29.2320,-94.4130,5.0,4.0,180.0,4.0,'1111122,1111122,1111122' 
NDBC,ioos:station:wmo:42035:1,2015-12-10T03:50:00Z,29.2320,-94.4130,5.0,3.0,200.0,4.0,'1111122,1111122,1111122' 
NDBC,ioos:station:wmo:42035:1,2015-12-10T04:50:00Z,29.2320,-94.4130,5.0,3.0,210.0,3.0,'1111122,1111122,1111122' 
NDBC,ioos:station:wmo:42035:1,2015-12-10T05:50:00Z,29.2320,-94.4130,5.0,5.0,210.0,5.0,'1111122,1111122,1111122' 
NDBC,ioos:station:wmo:42035:1,2015-12-10T06:50:00Z,29.2320,-94.4130,5.0,3.0,200.0,4.0,'1111122,1111122,1111122' 
NDBC,ioos:station:wmo:42035:1,2015-12-10T07:50:00Z,29.2320,-94.4130,5.0,4.0,160.0,5.0,'1111122,1111122,1111122' 
NDBC,ioos:station:wmo:42035:1,2015-12-10T08:50:00Z,29.2320,-94.4130,5.0,4.0,190.0,5.0,'1111122,1111122,1111122' 
NDBC,ioos:station:wmo:42035:1,2015-12-10T09:50:00Z,29.2320,-94.4130,5.0,3.0,200.0,3.0,'1111122,1111122,1111122' 
NDBC,ioos:station:wmo:42035:1,2015-12-10T10:50:00Z,29.2320,-94.4130,5.0,3.0,190.0,3.0,'1111122,1111122,1111122' 
NDBC,ioos:station:wmo:42035:1,2015-12-10T11:50:00Z,29.2320,-94.4130,5.0,2.0,200.0,3.0,'1111122,1111122,1111122' 
NDBC,ioos:station:wmo:42035:1,2015-12-10T12:50:00Z,29.2320,-94.4130,5.0,2.0,190.0,3.0,'1111122,1111122,1111122' 
NDBC,ioos:station:wmo:42035:1,2015-12-10T13:50:00Z,29.2320,-94.4130,5.0,2.0,190.0,3.0,'1111122,1111122,1111122' 
NDBC,ioos:station:wmo:42035:1,2015-12-10T14:50:00Z,29.2320,-94.4130,5.0,3.0,190.0,3.0,'1111122,1111122,1111122' 
NDBC,ioos:station:wmo:42035:1,2015-12-10T16:50:00Z,29.2320,-94.4130,5.0,3.0,180.0,3.0,'1111122,1111122,1111122' 
NDBC,ioos:station:wmo:42035:1,2015-12-10T17:50:00Z,29.2320,-94.4130,5.0,4.0,180.0,4.0,'1111122,1111122,1111122' 
NDBC,ioos:station:wmo:42035:1,2015-12-10T18:50:00Z,29.2320,-94.4130,5.0,3.0,190.0,3.0,'1111122,1111122,1111122' 
NDBC,ioos:station:wmo:42035:1,2015-12-10T19:50:00Z,29.2320,-94.4130,5.0,4.0,200.0,5.0,'1111122,1111122,1111122' 
NDBC,ioos:station:wmo:42035:1,2015-12-10T20:50:00Z,29.2320,-94.4130,5.0,4.0,210.0,5.0,'1111122,1111122,1111122' 
NDBC,ioos:station:wmo:42035:1,2015-12-10T21:50:00Z,29.2320,-94.4130,5.0,5.0,200.0,5.0,'1111122,1111122,1111122' 
NDBC,ioos:station:wmo:42035:1,2015-12-10T22:50:00Z,29.2320,-94.4130,5.0,4.0,200.0,5.0,'1111122,1111122,1111122' 
NDBC,ioos:station:wmo:42035:1,2015-12-10T23:50:00Z,29.2320,-94.4130,5.0,5.0,200.0,5.0,'1111122,1111122,1111122' 
NDBC,ioos:station:wmo:42035:1,2015-12-11T00:50:00Z,29.2320,-94.4130,5.0,4.0,180.0,4.0,'1111122,1111122,1111122' 
NDBC,ioos:station:wmo:42035:1,2015-12-11T01:50:00Z,29.2320,-94.4130,5.0,6.0,190.0,6.0,'1111122,1111122,1111122' 
NDBC,ioos:station:wmo:42035:1,2015-12-11T02:50:00Z,29.2320,-94.4130,5.0,6.0,190.0,7.0,'1111122,1111122,1111122' 
NDBC,ioos:station:wmo:42035:1,2015-12-11T03:50:00Z,29.2320,-94.4130,5.0,6.0,200.0,7.0,'1111122,1111122,1111122' 
NDBC,ioos:station:wmo:42035:1,2015-12-11T04:50:00Z,29.2320,-94.4130,5.0,6.0,200.0,6.0,'1111122,1111122,1111122' 
NDBC,ioos:station:wmo:42035:1,2015-12-11T05:50:00Z,29.2320,-94.4130,5.0,5.0,200.0,5.0,'1111122,1111122,1111122' 
NDBC,ioos:station:wmo:42035:1,2015-12-11T06:50:00Z,29.2320,-94.4130,5.0,5.0,200.0,6.0,'1111122,1111122,1111122' 
NDBC,ioos:station:wmo:42035:1,2015-12-11T07:50:00Z,29.2320,-94.4130,5.0,5.0,200.0,5.0,'1111122,1111122,1111122' 
NDBC,ioos:station:wmo:42035:1,2015-12-11T08:50:00Z,29.2320,-94.4130,5.0,4.0,200.0,5.0,'1111122,1111122,1111122' 
NDBC,ioos:station:wmo:42035:1,2015-12-11T09:50:00Z,29.2320,-94.4130,5.0,3.0,190.0,3.0,'1111122,1111122,1111122' 
NDBC,ioos:station:wmo:42035:1,2015-12-11T10:50:00Z,29.2320,-94.4130,5.0,4.0,190.0,5.0,'1111122,1111122,1111122' 
NDBC,ioos:station:wmo:42035:1,2015-12-11T11:50:00Z,29.2320,-94.4130,5.0,3.0,200.0,4.0,'1111122,1111122,1111122' 
NDBC,ioos:station:wmo:42035:1,2015-12-11T12:50:00Z,29.2320,-94.4130,5.0,4.0,190.0,4.0,'1111122,1111122,1111122' 
NDBC,ioos:station:wmo:42035:1,2015-12-11T13:50:00Z,29.2320,-94.4130,5.0,5.0,190.0,5.0,'1111122,1111122,1111122' 
NDBC,ioos:station:wmo:42035:1,2015-12-11T14:50:00Z,29.2320,-94.4130,5.0,4.0,190.0,4.0,'1111122,1111122,1111122' 
NDBC,ioos:station:wmo:42035:1,2015-12-11T15:50:00Z,29.2320,-94.4130,5.0,2.0,210.0,3.0,'1111122,1111122,1111122' 